Hourly Data Report for September 23, 2020

SHEARWATER RCS
NOVA SCOTIA
Current Station Operator: ECCC - MSC

44°37'47.000" N
63°30'48.000" W
24.00 m
8205092
71264
AAW

Download Data

Hourly Data (September 2020)
Hourly Data Report for September 23, 2020
TIME Temp Definition
°C
Dew Point Definition
°C
Rel Hum Definition
%
Wind Dir Definition
10's deg

Wind Spd Definition
km/h
Visibility Definition
km
Stn Press Definition
kPa
Hmdx Definition


Wind Chill Definition


Weather Definition


00:00 17.8 16.8 94 6 21   98.49     LegendNANA
01:00 17.4 16.4 94 5 22   98.33     LegendNANA
02:00 17.1 16.2 94 6 23   98.13     LegendNANA
03:00 16.5 15.6 95 5 28   97.92     LegendNANA
04:00 16.4 15.7 96 2 24   97.72     LegendNANA
05:00 16.3 15.6 96 36 21   97.54     LegendNANA
06:00 16.4 15.7 96 33 26   97.53     LegendNANA
07:00 14.1 13.1 94 31 29   97.69     LegendNANA
08:00 12.5 11.3 92 30 29   97.97     LegendNANA
09:00 12.4 10.8 90 30 27   98.24     LegendNANA
10:00 12.5 10.2 86 30 30   98.49     LegendNANA
11:00 12.4 9.9 85 30 25   98.71     LegendNANA
12:00 12.5 9.1 80 30 21   98.93     LegendNANA
13:00 12.2 8.9 80 30 25   99.05     LegendNANA
14:00 12.4 9.1 80 30 19   99.19     LegendNANA
15:00 12.7 9.3 80 30 17   99.29     LegendNANA
16:00 13.3 9.9 80 30 14   99.35     LegendNANA
17:00 14.1 10.3 78 24 8   99.45     LegendNANA
18:00 13.9 10.9 82 21 5   99.49     LegendNANA
19:00 14.5 10.6 77 27 6   99.54     LegendNANA
20:00 15.0 10.4 74 28 9   99.63     LegendNANA
21:00 15.0 10.4 74 27 10   99.71     LegendNANA
22:00 15.0 10.3 73 29 10   99.80     LegendNANA
23:00 15.0 10.2 73 28 10   99.87     LegendNANA

Notes on Data Quality.

Legend

  • E = Estimated
  • M = Missing
  • NA = Not Available*
  • [empty] = Indicates an unobserved value
Date modified: